[Iaude] MPEC V26: 2023 VM [a=2.47,e=0.73,i=3.3,H=23.8]

mpec at marsden.cfa.harvard.edu mpec at marsden.cfa.harvard.edu
Sat Nov 4 09:56:14 EDT 2023


M.P.E.C. 2023-V26                              Issued 2023 November 4, 13:54 UT

     The Minor Planet Electronic Circulars contain information on unusual
         minor planets, routine data on comets and natural satellites,
         and occasional editorial announcements.  They are published
    on behalf of Division F of the International Astronomical Union by the
          Minor Planet Center, Smithsonian Astrophysical Observatory,
                          Cambridge, MA 02138, U.S.A.
			  
             Prepared using the Tamkin Foundation Computer Network

                              MPC at CFA.HARVARD.EDU
            URL https://www.minorplanetcenter.net/    ISSN 1523-6714

                                    2023 VM                                     


Observations:
     K23V00M*1C2023 11 02.31851901 20 43.170+34 45 34.09         19.89GVEV026G96
     K23V00M 1C2023 11 02.32369601 20 44.639+34 45 03.56         20.13GVEV026G96
     K23V00M 1C2023 11 02.32885701 20 46.133+34 44 33.43         19.89GVEV026G96
     K23V00M 1C2023 11 02.33401501 20 47.598+34 44 03.12         20.11GVEV026G96
     K23V00M mC2023 11 02.37002601 20 57.966+34 40 31.30         20.60GVEV026I52
     K23V00M mC2023 11 02.37048501 20 58.052+34 40 28.52               VEV026I52
     K23V00M mC2023 11 02.37299201 20 58.776+34 40 13.30               VEV026I52
     K23V00M mC2023 11 02.37550301 20 59.482+34 39 59.58               VEV026I52
     K23V00M mC2023 11 03.10677101 24 36.241+33 34 29.86         20.63GVEV026I52
     K23V00M mC2023 11 03.10815201 24 36.673+33 34 23.27         21.00GVEV026I52
     K23V00M mC2023 11 03.10952901 24 36.936+33 34 15.64         20.45GVEV026I52
     K23V00M KC2023 11 03.12816701 24 39.79 +33 32 43.8          20.3 GVEV026H21
     K23V00M KC2023 11 03.13096601 24 40.47 +33 32 30.0          20.7 GVEV026H21
     K23V00M KC2023 11 03.13376501 24 41.15 +33 32 15.9          20.6 GVEV026H21
     K23V00M KC2023 11 03.13665701 24 41.83 +33 32 01.6          20.4 GVEV026H21
     K23V00M KC2023 11 03.13996601 24 43.94 +33 31 46.0          20.0 GXEV026858
     K23V00M KC2023 11 03.14697601 24 45.64 +33 31 11.5          20.1 GXEV026858
     K23V00M KC2023 11 03.15398601 24 47.32 +33 30 37.2          20.1 GXEV026858
     K23V00M  C2023 11 03.26453801 25 17.061+33 21 41.29         20.89wXEV026F51
     K23V00M  C2023 11 03.27592501 25 19.680+33 20 47.32         20.68wXEV026F51
     K23V00M  C2023 11 03.28731001 25 22.284+33 19 52.89         20.80wXEV026F51
     K23V00M  C2023 11 03.29866301 25 24.891+33 18 58.43         20.95wXEV026F51
     K23V00M KC2023 11 04.17529501 28 49.66 +32 12 11.2          20.5 G EV026858
     K23V00M KC2023 11 04.18230901 28 51.01 +32 11 42.2          20.3 G EV026858
     K23V00M KC2023 11 04.18919601 28 52.31 +32 11 12.9          20.2 G EV026858

Observer details:
858 Tebbutt Observatory, Edgewood.  Observer F. B. Zoltowski.  0.51-m f/8.1
    Schmidt-Cassegrain + CCD.
F51 Pan-STARRS 1, Haleakala.  Observers J. Bulger, T. Lowe, P. Minguez, A.
    Schultz, I. Smith.  Measurers K. Chambers, T. de Boer, J. Fairlamb, H.
    Gao, M. Huber, C.-C. Lin, E. Magnier, Y. Ramanjooloo, R. Wainscoat, R.
    Weryk.  1.8-m Ritchey-Chretien + CCD.
G96 Mt. Lemmon Survey.  Observer J. B. Fazekas.  Measurers E. C. Beshore, D.
    Fay, J. B. Fazekas, D. C. Fuls, A. R. Gibbs, A. D. Grauer, H. Groeller, J.
    K. Hogan, R. A. Kowalski, S. M. Larson, G. J. Leonard, D. Rankin, R. L.
    Seaman, F. C. Shelly, K. W. Wierzchos.  1.5-m reflector + 10K CCD.
H21 Astronomical Research Observatory, Westfield.  Observer R. Holmes.
    Measurers T. Linder, R. Holmes, L. Horn.  0.76-m f/3.0 astrograph + CCD.
I52 Steward Observatory, Mt. Lemmon Station.  Observers R. A. Kowalski, D.
    Rankin.  Measurers E. C. Beshore, D. Fay, J. B. Fazekas, D. C. Fuls, A. R.
    Gibbs, A. D. Grauer, H. Groeller, J. K. Hogan, R. A. Kowalski, S. M.
    Larson, G. J. Leonard, D. Rankin, R. L. Seaman, F. C. Shelly, K. W.
    Wierzchos.  1.0-m prime focus + CCD.

Orbital elements:
2023 VM                                                  Earth MOID = 0.0380 AU
Epoch 2023 Sept. 13.0 TT = JDT 2460200.5                Veres                   
M   0.63487              (2000.0)            P               Q                  
n   0.25375073     Peri.  322.30783     +0.65923745     +0.75185106             
a   2.4709532      Node   348.91863     -0.67490727     +0.58505927             
e   0.7343980      Incl.    3.34751     -0.33152098     +0.30401584             
P   3.88           H   23.84          G   0.15           U   9                  
Residuals in seconds of arc
231102 G96  0.0   0.0     231103 I52  1.1+  0.5+    231103 F51  0.2+  0.5-
231102 G96  0.1-  0.1-    231103 I52  0.1+  0.4-    231103 F51  0.0   0.1-
231102 G96  0.2+  0.1+    231103 H21  0.2-  0.1+    231103 F51  0.1-  0.1-
231102 G96  0.1+  0.1+    231103 H21  0.1-  0.2+    231103 F51  0.2+  0.3-
231102 I52  0.6+  0.1-    231103 H21  0.1+  0.0     231104 858  0.0   0.1-
231102 I52  0.1+  0.2-    231103 H21  0.0   0.0     231104 858  0.0   0.3+
231102 I52  0.1+  0.7-    231103 858  0.3-  0.0     231104 858  0.2-  0.2-
231102 I52  0.1-  0.3+    231103 858  0.0   0.1-
231103 I52  0.1-  0.3+    231103 858  0.1+  0.0

Ephemeris:
2023 VM                  a,e,i = 2.47, 0.73, 3                   q = 0.6563
Date    TT    R. A. (2000) Decl.     Delta      r    Elong.  Phase     V
2023 10 05    14 17 15.9 -10 43 54   0.2410  0.7877    24.6   148.0    28.3
...
2023 10 20    15 16 19.4 +15 13 20   0.06164 0.9464    35.4   142.5    24.9
...
2023 10 28    00 12 05.9 +50 11 51   0.06191 1.0391   135.9    41.7    19.5
...
2023 11 03    01 24 03.8 +33 43 47   0.1276  1.1099   155.9    21.4    20.6
2023 11 04    01 28 09.5 +32 24 54   0.1395  1.1217   157.1    20.1    20.8
2023 11 05    01 31 33.6 +31 17 27   0.1515  1.1336   158.0    19.1    21.0
...
2023 11 11    01 44 15.0 +26 56 03   0.2260  1.2046   159.5    16.7    21.9
...
2023 11 19    01 53 24.0 +24 03 40   0.3318  1.2985   156.0    18.1    22.9
...
2023 12 04    02 06 12.8 +21 44 10   0.5514  1.4708   144.7    22.8    24.5

M. P. C. Staff               (C) Copyright 2023 MPC           M.P.E.C. 2023-V26




More information about the Iaude mailing list